TimeEST,TemperatureF,Dew PointF,Humidity,Sea Level PressureIn,VisibilityMPH,Wind Direction,Wind SpeedMPH,Gust SpeedMPH,PrecipitationIn,Events,Conditions,WindDirDegrees,DateUTC
12:01 AM,71.1,68.0,90,30.15,8.0,South,9.2,-,0.00,Rain,Light Rain,180,2013-12-23 05:01:00
12:54 AM,72.0,68.0,87,30.13,8.0,South,9.2,18.4,0.00,,Overcast,180,2013-12-23 05:54:00
1:26 AM,70.0,66.0,87,30.15,5.0,SSW,9.2,21.9,0.06,Rain,Rain,200,2013-12-23 06:26:00
1:54 AM,69.1,66.0,90,30.14,9.0,SSW,6.9,-,0.06,,Overcast,200,2013-12-23 06:54:00
2:20 AM,71.1,68.0,90,30.14,6.0,South,9.2,-,N/A,,Overcast,190,2013-12-23 07:20:00
2:54 AM,72.0,68.0,87,30.14,7.0,South,9.2,-,N/A,,Overcast,190,2013-12-23 07:54:00
3:19 AM,72.0,68.0,87,30.14,8.0,South,11.5,-,N/A,,Overcast,190,2013-12-23 08:19:00
3:54 AM,72.0,68.0,87,30.12,8.0,South,11.5,-,N/A,,Overcast,190,2013-12-23 08:54:00
4:37 AM,71.1,68.0,90,30.13,8.0,South,11.5,19.6,N/A,,Overcast,180,2013-12-23 09:37:00
4:54 AM,71.1,68.0,90,30.12,8.0,South,11.5,19.6,N/A,,Overcast,180,2013-12-23 09:54:00
5:38 AM,71.1,66.9,87,30.13,8.0,South,11.5,19.6,N/A,,Overcast,180,2013-12-23 10:38:00
5:54 AM,70.0,66.9,90,30.12,8.0,South,11.5,19.6,N/A,,Overcast,180,2013-12-23 10:54:00
6:54 AM,70.0,66.0,87,30.11,8.0,South,9.2,19.6,N/A,,Overcast,190,2013-12-23 11:54:00
7:54 AM,71.1,66.9,87,30.13,7.0,North,-9999.0,-,N/A,,Overcast,0,2013-12-23 12:54:00
8:47 AM,73.0,66.9,81,30.14,10.0,SSW,15.0,26.5,N/A,,Scattered Clouds,200,2013-12-23 13:47:00
8:54 AM,73.0,66.9,81,30.13,10.0,SSW,11.5,24.2,N/A,,Scattered Clouds,200,2013-12-23 13:54:00
9:54 AM,75.0,68.0,79,30.14,9.0,SSW,15.0,27.6,N/A,,Mostly Cloudy,200,2013-12-23 14:54:00
10:54 AM,73.9,68.0,82,30.12,9.0,SSW,17.3,27.6,N/A,,Overcast,210,2013-12-23 15:54:00
11:54 AM,73.0,64.0,73,30.11,10.0,SW,15.0,26.5,N/A,,Overcast,220,2013-12-23 16:54:00
12:25 PM,68.0,64.9,90,30.11,1.2,SW,19.6,28.8,0.09,Rain,Heavy Rain,220,2013-12-23 17:25:00
12:41 PM,69.1,66.0,90,30.10,3.0,SSW,9.2,-,0.17,Rain,Light Rain,210,2013-12-23 17:41:00
12:54 PM,70.0,66.9,90,30.09,10.0,SSW,10.4,18.4,0.17,,Overcast,210,2013-12-23 17:54:00
1:54 PM,72.0,66.0,81,30.06,10.0,SSW,9.2,20.7,N/A,,Overcast,210,2013-12-23 18:54:00
2:13 PM,73.0,66.0,79,30.07,10.0,SSW,12.7,20.7,N/A,,Mostly Cloudy,210,2013-12-23 19:13:00
2:54 PM,72.0,66.0,81,30.05,10.0,SSW,16.1,25.3,N/A,,Mostly Cloudy,200,2013-12-23 19:54:00
3:01 PM,73.0,66.0,79,30.06,10.0,SSW,15.0,23.0,N/A,,Mostly Cloudy,200,2013-12-23 20:01:00
3:54 PM,72.0,64.9,78,30.04,10.0,SSW,16.1,21.9,N/A,,Mostly Cloudy,210,2013-12-23 20:54:00
4:54 PM,70.0,64.9,84,30.03,10.0,SSW,10.4,25.3,N/A,,Mostly Cloudy,200,2013-12-23 21:54:00
5:54 PM,69.1,64.9,87,30.03,10.0,SSW,10.4,20.7,N/A,,Mostly Cloudy,200,2013-12-23 22:54:00
6:19 PM,70.0,64.0,81,30.04,10.0,SSW,11.5,-,N/A,,Scattered Clouds,210,2013-12-23 23:19:00
6:26 PM,70.0,64.0,81,30.04,10.0,SSW,11.5,24.2,N/A,,Mostly Cloudy,200,2013-12-23 23:26:00
6:54 PM,70.0,64.9,84,30.04,10.0,SSW,13.8,-,N/A,,Mostly Cloudy,210,2013-12-23 23:54:00
7:54 PM,71.1,66.0,84,30.05,10.0,SW,17.3,26.5,N/A,,Mostly Cloudy,230,2013-12-24 00:54:00
8:01 PM,70.0,66.0,87,30.06,10.0,SW,21.9,26.5,N/A,,Overcast,230,2013-12-24 01:01:00
8:08 PM,70.0,66.0,87,30.05,9.0,SW,16.1,26.5,N/A,,Mostly Cloudy,220,2013-12-24 01:08:00
8:54 PM,70.0,64.9,84,30.05,10.0,WSW,13.8,23.0,N/A,,Mostly Cloudy,240,2013-12-24 01:54:00
9:01 PM,70.0,64.9,84,30.05,8.0,WSW,16.1,-,N/A,,Overcast,240,2013-12-24 02:01:00
9:22 PM,66.0,63.0,90,30.07,3.0,North,18.4,-,0.03,Rain,Rain,350,2013-12-24 02:22:00
9:29 PM,63.0,59.0,87,30.07,3.0,NNW,17.3,-,0.03,Rain,Rain,340,2013-12-24 02:29:00
9:54 PM,61.0,57.9,90,30.06,3.0,NNW,12.7,-,0.03,Rain,Rain,340,2013-12-24 02:54:00
10:54 PM,60.1,57.9,93,30.06,10.0,NNW,6.9,-,0.00,Rain,Rain,340,2013-12-24 03:54:00
11:54 PM,60.1,57.0,90,30.07,10.0,NNW,13.8,-,0.00,Rain,Light Rain,330,2013-12-24 04:54:00